Regional Weather Roundup
Issued by NWS

Home | Current Version | Previous Version | Graphics & Text | Print | Product List | Glossary On
Versions: 1 2 3 4 5 6 7 8 9 10 11 12 13 14 15 16 17 18 19 20 21 22 23 24 25 26 27 28 29 30 31 32 33 34 35 36 37 38 39 40 41 42 43 44 45 46 47 48 49 50
000
ASUS45 KBOU 271007
RWRCO

WEATHER ROUNDUP FOR COLORADO
NATIONAL WEATHER SERVICE DENVER/BOULDER CO
400 AM MDT THU AUG 27 2015

NOTE: "FAIR" INDICATES FEW OR NO CLOUDS BELOW 12000 FEET WITH NO
SIGNIFICANT WEATHER AND/OR OBSTRUCTIONS TO VISIBILITY.

COZ001>005-013-030-031-271100-
...NORTHWEST COLORADO...

CITY           SKY/WX    TMP DP  RH WIND       PRES   REMARKS
CRAIG          CLOUDY    59  56  89 E5        30.29F
HAYDEN         NOT AVBL
MEEKER         CLOUDY    59  57  93 CALM      30.30S
MOUNT WERNER   NOT AVBL
STEAMBOAT SPGS CLOUDY    55  55  97 CALM      30.33F
WALDEN         CLOUDY    50  45  81 SE5       30.37S
$$

COZ006>008-011-271100-
...WEST CENTRAL VALLEYS...

CITY           SKY/WX    TMP DP  RH WIND       PRES   REMARKS
GRAND JUNCTION CLOUDY    62  61  96 E9        30.23S
MONTROSE       CLOUDY    60  58  92 CALM      30.30F
EAGLE          CLOUDY    57  55  94 CALM      30.35S
RIFLE          CLOUDY    61  58  90 CALM      30.28R
DELTA          HVY RAIN  63  61  92 NE3       30.28S
NUCLA          CLOUDY    64  54  68 SW8       30.34F
$$

COZ017>023-064>068-271100-
...SOUTHWEST COLORADO...

CITY           SKY/WX    TMP DP  RH WIND       PRES   REMARKS
DURANGO        CLOUDY    57  55  93 NW3       30.40S
CORTEZ         CLOUDY    60  57  89 CALM      30.33F
PAGOSA SPRINGS MOCLDY    55  54  97 CALM      30.46F
TELLURIDE      CLOUDY    55  49  78 CALM      30.51S
WOLF CREEK PAS SNOW      37  37 100 SW21G26   30.69S VSB 1/4
$$

COZ009-010-012-014-032>034-037-058>063-271100-
...CENTRAL COLORADO...

CITY           SKY/WX    TMP DP  RH WIND       PRES   REMARKS
ASPEN          CLOUDY    54  52  93 CALM      30.39R
BUENA VISTA    MOCLDY    51  46  84 E3        30.38F
COPPER MTN     CLOUDY    48  37  66 S9        30.64S
BERTHOUD PASS  LGT RAIN  37  27  65 NW23      30.64F VSB<1/4
COTTONWOOD PAS CLOUDY    55  43  62 N3        30.49S
GUNNISON       NOT AVBL
KREMMLING      CLOUDY    54  48  82 CALM      30.37S
LEADVILLE      MOCLDY    49  44  83 NE8       30.49S
MONARCH PASS   HVY SNOW  43  41  93 SW26G32   30.73S VSB<1/4
SALIDA         MOCLDY    60  50  69 W13       30.43S
SUNLIGHT       FOG       50  50 100 CALM      30.58S VSB 1
WILKERSON PASS FOG       43  41  93 SW14G23   30.56F VSB 1
$$

COZ069>075-271100-
...SAN LUIS VALLEY/SANGRE DE CRISTO MOUNTAINS...

CITY           SKY/WX    TMP DP  RH WIND       PRES   REMARKS
ALAMOSA        LGT RAIN  54  50  86 S7        30.40F
LA VETA PASS   CLOUDY    46  43  87 S17G36    30.50F
SAGUACHE       CLOUDY    52  50  93 N3        30.44S
$$

COZ035-036-038>040-271100-
...NORTHERN COLORADO FRONT RANGE...

CITY           SKY/WX    TMP DP  RH WIND       PRES   REMARKS
DENVER INTL AP MOCLDY    63  44  50 S8        30.12R
DMNS CITY PARK   N/A     66  44  45 SE8       30.12R
AURORA         PTCLDY    63  44  50 SW9       30.14S
FRONT RANGE AP NOT AVBL
ERIE MUNI ARPT PTCLDY    57  47  70 CALM      30.09S
BOULDER MUN AP PTCLDY    63  46  55 NW5       30.10R
CENTENNIAL     PTCLDY    65  44  46 SW7       30.16R
BROOMFIELD     PTCLDY    70  41  35 E5        30.13S
FORT COLLINS   MOCLDY    64  48  55 CALM      30.09S
LONGMONT       MOCLDY    62  52  69 CALM      30.11R
$$

COZ041-046-047-076>085-087-088-271100-
...PIKES PEAK/PALMER DIVIDE AND SOUTHERN FOOTHILLS...

CITY           SKY/WX    TMP DP  RH WIND       PRES   REMARKS
COLO. SPRINGS  CLOUDY    64  44  48 NW6       30.19S
A. F. ACADEMY  MOCLDY    68  44  41 NE6       30.20S
ELLICOTT       CLOUDY   N/A N/A N/A CALM      30.18R
FALCON         CLOUDY    66  44  44 NW8       30.24S
FORT CARSON    NOT AVBL
LIMON          PTCLDY    65  46  50 W9        30.10S
MONUMENT HILL  PTCLDY    59  43  55 W8        30.26R
TRINIDAD       MOCLDY    72  48  42 SW13G22   30.18F
$$

COZ042>045-048>051-090-091-271100-
...NORTHEAST COLORADO...

CITY           SKY/WX    TMP DP  RH WIND       PRES   REMARKS
GREELEY ARPT   MOCLDY    63  48  59 SW7       30.08R
AKRON          PTCLDY    61  46  57 VRB3      30.05R
BURLINGTON     MOCLDY    70  50  49 S10       30.05R
WRAY           PTCLDY    70  49  48 CALM      30.00S
STERLING       PTCLDY    61  48  63 CALM      30.00F
HOLYOKE        PTCLDY    61  52  72 S6        29.99F
FORT MORGAN    PTCLDY    67  44  43 NE9       30.04S
$$

COZ086-089-092>099-271100-
...SOUTHEAST COLORADO...

CITY           SKY/WX    TMP DP  RH WIND       PRES   REMARKS
PUEBLO         CLOUDY    68  50  52 SE5       30.09S
LA JUNTA       MOCLDY    74  49  41 SW10      30.07S
LAMAR          MOCLDY    75  50  41 SW10      30.02S
SPRINGFIELD      N/A     71  51  49 SW10      30.11F
$$




USA.gov is the U.S. government's official web portal to all federal, state and local government web resources and services.